Regional Weather Roundup
Issued by NWS Sioux Falls, SD

Home | Current Version | Previous Version | Text Only | Print | Product List | Glossary On
Versions: 1 2 3 4 5 6 7 8 9 10 11 12 13 14 15 16 17 18 19 20 21 22 23 24 25 26 27 28 29 30 31 32 33 34 35 36 37 38 39 40 41 42 43 44 45 46 47 48 49 50
510
ASUS43 KFSD 232210
RWRFSD

WEATHER ROUNDUP FOR SE SOUTH DAKOTA/SW MINNESOTA/NW IOWA
NATIONAL WEATHER SERVICE SIOUX FALLS SD
500 PM CDT SUN APR 23 2017

NOTE: "FAIR" INDICATES FEW OR NO CLOUDS BELOW 12,000 FEET WITH NO
SIGNIFICANT WEATHER AND OR OBSTRUCTIONS TO VISIBILITY.


SDZ038>040-050-052>070-232300-
SOUTHEAST SOUTH DAKOTA

CITY           SKY/WX    TMP DP  RH WIND       PRES   REMARKS
BROOKINGS      CLOUDY    70  30  22 S26G33    29.82F
CHAMBERLAIN    CLOUDY    76  32  20 S22G30    29.73F
HURON          SUNNY     73  30  20 S21G29    29.76F
MADISON        FAIR      68  32  26 S22G38    29.83S
MITCHELL       CLOUDY    73  26  17 S28G36    29.78F
SIOUX FALLS    PTSUNNY   70  31  23 SW22G38   29.84F
WINNER         FAIR      76  32  20 SW22G31   29.72F
YANKTON        CLOUDY    73  27  17 S28G38    29.81F
$$

MNZ071-072-080-081-089-090-097-098-232300-
SOUTHWEST MINNESOTA

CITY           SKY/WX    TMP DP  RH WIND       PRES   REMARKS
FAIRMONT       MOSUNNY   71  27  19 SW17G23   29.92F
JACKSON        CLOUDY    70  27  19 S21G28    29.92F
LUVERNE        PTSUNNY   70  27  19 S25       29.87F
MARSHALL       MOSUNNY   72  31  22 SW24G33   29.83F
MONTEVIDEO     CLOUDY    73  34  23 SW14G24   29.83F
PIPESTONE      PTSUNNY   70  25  18 SW25G32   29.85F
REDWOOD FALLS  CLOUDY    71  29  21 S21G26    29.85F
TRACY          CLOUDY    71  33  25 S15G21    29.86F
WINDOM         PTSUNNY   70  25  18 S15G24    29.89F
WORTHINGTON    MOSUNNY   69  30  23 S22G29    29.90F
$$

IAZ001>003-012>014-020>022-031-032-NEZ013-014-SDZ071-232300-
NORTHWEST IOWA

CITY           SKY/WX    TMP DP  RH WIND       PRES   REMARKS
CHEROKEE       MOSUNNY   67  33  28 SW16G22   29.93F
DENISON        MOSUNNY   72  30  21 SW16G25   29.97F
ESTHERVILLE    CLOUDY    69  27  20 SW17G26   29.92F
LE MARS        CLOUDY    72  30  21 SW23G31   29.90F
ORANGE CITY    PTSUNNY   70  32  24 SW24      29.90F
SHELDON        PTSUNNY   70  27  19 S22G29    29.89F
SIOUX CITY     PTSUNNY   73  27  18 S21G31    29.91F
SPENCER        CLOUDY    71  29  21 MISG      29.92F
STORM LAKE     MOSUNNY   70  27  19 S18G28    29.95F
$$

ABBREVIATIONS USED IN REMARKS
   TC - TEMPERATURE IN CELSIUS
  WCI - WIND CHILL INDEX
   HX - HEAT INDEX
  VSB - VISIBILITY





USA.gov is the U.S. government's official web portal to all federal, state and local government web resources and services.